Temperature
19 18 18 18 18 18 18 18 18 18 18 18 18 18 18 18 18 18 18 18 18 18 18 18 18 18 18 17 17 17 17 17 17 17 17 17 17 17 17 17 17 17 17
18 18 18 18 18 18 18 18 18 18 18 18 18 18 18 18 18 18 18 18 18 18 18 18 18 18 18 17 17 17 17 17 17 17 17 17 17 17 17 17 17 16 16
18 18 18 18 18 18 18 18 18 18 18 18 18 18 18 18 18 18 18 18 18 18 18 18 18 18 18 17 17 17 17 17 17 17 17 17 17 17 17 17 17 16 16
18 18 18 18 18 18 18 18 18 18 18 18 18 18 18 18 18 18 18 18 18 18 18 18 18 18 18 17 17 17 17 17 17 17 17 17 17 17 17 17 16 16 16
18 18 18 18 18 18 18 18 18 18 18 18 18 17 17 18 18 18 18 18 18 18 18 18 18 18 17 17 17 17 17 17 17 17 17 17 17 17 17 17 16 16 16
18 18 18 18 18 18 18 18 18 18 18 18 18 17 17 17 17 17 17 18 17 17 18 17 17 17 17 17 17 17 17 17 17 17 17 17 17 17 17 17 16 16 16
18 18 18 17 17 18 18 18 18 18 17 18 18 17 17 17 17 17 17 17 17 17 17 17 17 17 17 17 17 17 17 17 17 17 17 17 16 16 16 16 16 16 16
18 18 18 17 17 17 17 17 17 17 17 17 17 17 17 17 17 17 17 17 17 17 17 17 17 17 17 17 17 17 17 17 17 17 16 16 16 16 16 16 16 16 16
18 17 17 17 17 17 17 17 17 17 17 17 17 17 17 17 17 17 17 17 17 17 17 17 17 17 17 17 17 17 17 17 16 16 16 16 16 16 16 16 16 16 16
17 17 17 17 17 17 17 17 17 17 17 17 17 17 17 17 17 17 17 17 17 17 17 17 17 16 16 16 16 16 16 16 16 16 16 16 16 16 16 16 16 16 16
17 17 17 17 17 17 17 17 17 17 17 17 17 17 17 17 17 17 16 16 17 17 17 16 16 16 16 16 16 16 16 16 16 16 16 16 16 16 16 16 16 16 15
17 17 17 17 17 17 17 16 16 16 17 17 17 17 17 17 17 16 16 16 16 16 16 16 16 16 16 16 16 16 16 16 16 16 16 16 16 16 16 16 15 15 15
17 17 17 17 17 16 16 16 16 16 16 16 16 16 16 16 16 16 16 16 16 16 16 16 16 16 16 16 16 16 16 16 16 16 16 16 16 16 16 15 15 15 15
17 17 17 16 16 16 16 16 16 16 16 16 16 16 16 16 16 16 16 16 16 15 16 16 16 16 16 16 16 16 16 16 16 16 16 16 16 15 15 15 15 15 15
17 17 16 16 16 16 16 16 16 16 16 16 16 16 16 16 16 16 16 16 15 15 15 15 15 15 15 15 15 15 15 16 15 15 15 15 15 15 15 15 15 15 15
17 16 16 16 16 16 16 16 16 16 16 16 16 16 16 16 16 16 15 15 15 15 15 15 15 15 15 15 15 15 15 15 15 15 15 15 15 15 15 15 15 15 14
16 16 16 16 16 16 16 16 15 15 15 15 15 15 15 15 15 15 15 15 15 15 15 15 15 15 15 15 15 15 15 15 15 15 15 15 15 15 15 14 14 14 14
16 16 16 16 15 15 15 15 15 15 15 15 15 15 15 15 15 15 15 15 15 15 15 14 14 15 15 15 14 14 14 14 14 14 14 14 14 14 14 14 14 14 14
16 16 15 15 15 15 15 15 15 15 15 15 15 15 15 15 15 15 15 15 15 14 14 14 14 14 14 14 14 14 14 14 14 14 14 14 14 14 14 14 14 14 14
16 15 15 15 15 15 15 15 14 15 15 15 14 14 14 15 15 15 14 14 14 14 14 14 14 14 14 14 14 14 14 14 14 14 14 14 13 13 13 13 13 13 13
15 15 15 15 15 15 14 14 14 14 14 14 14 14 14 14 14 14 14 14 14 13 13 13 13 13 13 13 13 13 13 13 13 13 13 13 13 13 13 13 13 13 13
15 15 15 15 14 14 14 14 14 14 14 14 14 14 14 14 14 14 14 14 14 13 13 13 13 13 13 13 13 13 13 13 13 13 13 13 13 13 13 13 13 13 13
15 15 15 14 14 14 14 14 14 14 14 14 13 13 13 13 13 13 13 13 13 13 13 13 13 13 12 13 12 12 12 12 12 12 12 13 13 13 13 13 13 13 13
15 14 14 14 14 14 14 14 13 13 13 13 13 13 13 13 13 13 13 13 13 12 12 12 12 12 12 12 12 12 12 12 12 12 12 12 12 12 12 12 12 13 13
14 14 14 14 14 14 14 13 13 13 13 13 13 13 12 12 12 12 12 12 12 12 12 12 12 12 12 12 12 12 12 12 11 12 12 11 12 12 12 12 12 12 12
14 14 14 14 13 13 13 13 13 13 12 12 12 12 12 12 12 12 12 12 12 12 12 12 12 11 11 11 11 11 11 11 11 11 11 11 11 11 11 11 12 12 12
Wind_Speed
3 3 2 2 3 3 2 2 2 2 2 2 2 3 3 3 3 3 3 6 6 6 8 8 9 10 10 10 10 10 10 10 9 9 9 9 8 8 8 8 9 8 8
2 3 3 3 3 3 2 2 2 2 2 2 2 2 2 2 3 3 3 4 5 5 5 6 7 8 9 9 10 10 10 10 9 9 9 9 9 8 8 8 8 8 8
3 3 3 3 2 3 3 3 3 3 2 2 2 2 2 2 3 3 3 3 3 5 5 5 6 7 8 9 8 9 9 9 9 9 9 9 9 9 9 9 9 8 8
3 3 2 2 2 3 3 3 3 3 3 2 2 2 2 2 3 3 3 3 3 3 4 5 5 5 6 7 7 8 7 8 8 8 8 8 9 8 8 8 8 9 9
4 3 2 2 2 3 3 3 3 2 2 3 2 2 2 2 3 3 3 3 3 2 3 4 5 5 5 7 7 7 7 8 8 8 7 8 8 9 9 9 8 8 8
4 3 3 3 3 3 3 3 3 3 2 2 3 3 3 3 3 3 2 2 2 2 3 3 3 3 4 5 6 6 6 7 8 8 8 8 8 8 9 9 9 9 9
3 3 3 3 3 3 2 3 2 4 3 3 3 3 3 4 3 2 2 2 2 2 2 2 2 2 2 4 5 5 5 6 6 7 7 7 7 8 9 9 9 9 9
3 3 3 2 3 2 3 3 3 3 2 3 2 2 2 3 3 3 2 2 1 2 1 1 2 2 1 2 4 5 5 6 6 6 7 7 7 8 8 8 8 9 9
4 3 3 2 2 2 2 2 2 3 2 2 2 2 2 0 1 1 2 2 1 2 1 2 2 1 1 1 2 3 4 5 5 6 5 5 6 7 8 8 8 7 7
3 3 3 3 2 2 2 1 2 2 2 1 1 2 1 2 1 1 2 2 3 2 2 1 1 1 1 2 2 1 2 3 3 3 4 4 5 6 6 7 8 8 7
3 3 3 2 2 2 2 2 2 2 1 1 1 1 2 2 2 2 1 2 2 2 1 1 1 1 1 2 2 1 1 2 3 3 3 4 4 5 5 6 7 7 7
2 2 2 2 2 1 1 1 1 1 1 1 1 1 1 1 1 2 1 1 1 1 2 1 1 1 0 1 1 1 2 1 2 3 3 4 4 5 5 6 6 6 7
1 1 1 1 1 1 1 1 1 1 1 1 1 1 0 1 1 2 2 1 0 1 1 1 1 1 1 1 0 0 1 1 1 2 3 4 4 4 5 5 6 6 6
1 1 1 1 1 1 1 1 1 1 1 0 1 1 0 0 1 1 2 2 1 1 1 1 1 1 0 0 1 1 1 0 0 1 2 3 3 3 4 5 6 6 6
1 0 0 1 1 1 1 1 1 1 1 1 0 0 0 0 1 1 2 2 3 1 1 1 1 1 0 0 1 1 1 1 1 1 1 2 2 2 3 5 5 6 6
0 1 1 1 1 1 1 1 1 1 1 1 1 1 1 1 0 1 2 2 2 2 2 1 1 1 1 0 1 0 1 1 1 1 1 2 2 2 2 3 4 4 5
1 1 1 1 0 1 1 1 1 1 1 1 1 1 1 1 1 0 1 2 2 2 2 1 1 1 1 1 2 1 1 0 0 1 1 2 2 2 3 4 4 4 4
0 1 1 1 0 1 1 1 1 1 1 0 1 1 1 1 1 1 1 2 2 2 2 2 1 1 1 1 2 1 1 0 0 0 1 1 2 2 3 3 3 4 4
0 0 1 1 1 0 0 0 0 0 0 0 0 0 0 1 1 1 1 1 1 1 1 2 1 1 1 1 1 1 1 1 1 1 1 1 2 2 3 3 3 4 4
0 0 0 1 1 1 1 1 0 0 1 1 1 1 1 1 2 2 1 2 2 2 2 2 1 0 0 1 1 1 1 1 1 1 2 2 2 2 3 3 4 4 4
0 0 0 1 1 0 1 1 1 0 1 1 1 1 1 1 2 2 2 2 3 2 2 2 1 0 1 1 1 1 1 2 1 1 2 2 2 2 2 3 4 4 5
1 1 1 1 2 2 2 1 0 1 1 1 1 1 1 1 0 1 3 3 4 4 3 3 2 2 3 2 2 2 1 1 1 1 1 3 2 2 3 3 4 5 6
1 1 1 1 2 2 2 2 2 1 1 1 1 1 1 0 1 1 1 2 2 3 4 4 4 4 3 3 3 2 2 2 3 2 1 2 2 3 3 3 4 5 6
1 0 1 1 1 2 3 3 2 1 1 1 1 1 1 1 0 2 2 1 0 1 2 3 4 5 5 4 4 4 3 3 2 2 2 2 2 3 3 3 4 5 6
0 1 1 0 1 2 2 2 2 1 1 1 1 1 0 1 1 2 2 1 0 1 1 2 3 3 3 3 3 2 2 2 2 2 1 2 2 2 3 3 3 4 5
0 0 1 1 1 2 2 2 2 1 0 1 2 2 2 1 0 1 1 1 1 2 2 2 2 3 2 2 2 3 4 3 2 2 2 2 2 1 2 2 2 2 3
Wind_Direction
47 53 64 66 59 63 74 82 109 122 130 132 144 153 169 177 172 163 174 186 187 191 194 197 196 191 190 191 193 192 191 192 192 189 193 193 193 194 195 192 189 184 185
69 59 54 50 47 51 58 78 94 116 126 134 146 151 159 167 162 152 159 170 173 179 185 193 192 185 186 191 196 196 193 190 186 188 192 192 194 195 195 194 192 190 189
82 71 60 47 35 49 55 65 67 89 99 104 110 125 135 142 149 143 140 141 153 163 167 174 176 177 184 188 188 187 185 183 183 186 192 193 193 194 196 196 194 188 188
100 92 75 49 39 60 52 52 66 77 78 79 87 83 84 105 124 127 123 123 127 143 151 156 160 169 178 181 179 176 178 178 180 182 186 188 189 188 187 186 188 187 187
87 94 75 55 60 59 48 56 63 80 83 73 78 77 72 90 111 120 116 111 117 125 140 151 155 162 173 174 171 172 178 181 182 183 187 190 190 187 183 182 184 186 190
82 87 70 52 58 62 52 48 57 60 73 74 79 65 59 73 87 98 108 105 109 120 124 130 132 157 166 166 166 171 179 184 187 191 195 196 194 190 188 190 191 193 197
78 80 66 54 56 63 58 56 68 61 51 57 75 59 51 63 70 73 81 92 95 97 102 120 135 140 160 173 169 168 176 181 187 191 193 196 196 195 196 199 199 200 201
68 87 79 73 67 66 54 53 66 70 57 45 71 87 47 34 41 52 73 96 85 74 88 100 123 138 157 177 173 180 188 191 200 204 201 201 200 201 198 200 204 207 205
63 71 66 74 69 77 70 55 72 88 85 44 50 91 106 125 8 29 56 60 61 72 60 66 80 97 125 139 153 168 179 191 203 204 206 205 204 204 205 203 201 201 201
56 63 65 66 67 69 73 63 68 83 98 81 41 52 90 128 116 46 36 47 49 53 39 56 66 93 119 144 137 136 194 208 201 204 205 206 209 209 207 205 205 202 202
45 54 62 63 62 59 60 58 62 81 96 105 84 73 74 64 80 118 82 30 35 28 28 43 64 67 92 120 132 136 157 200 206 203 202 203 205 206 199 201 206 205 203
26 36 61 62 61 58 50 50 62 74 94 104 93 91 124 130 133 131 139 87 19 351 8 26 46 34 68 96 147 174 182 182 204 212 210 209 215 209 202 201 206 208 206
2 353 53 66 54 40 43 49 68 51 74 137 156 162 149 158 146 142 133 133 98 353 -0 7 17 34 61 51 250 231 186 189 203 212 214 214 213 213 213 212 212 210 208
247 321 47 86 72 65 56 51 52 21 36 83 129 142 130 180 141 139 143 142 122 40 349 311 357 20 341 234 267 225 201 242 249 227 216 215 210 207 210 215 218 212 207
202 113 91 62 50 60 64 75 53 19 34 19 6 86 155 238 158 159 154 163 158 171 246 290 301 323 295 202 272 267 225 248 249 208 174 178 187 200 207 209 210 208 205
133 120 95 61 38 33 46 65 45 16 47 15 10 34 10 330 140 172 172 171 167 176 208 262 265 308 335 47 18 344 268 262 224 189 161 163 167 176 185 188 193 194 196
169 147 152 122 52 18 45 71 51 48 60 14 356 26 349 14 89 112 152 154 156 165 191 262 309 326 357 351 351 354 297 240 202 160 156 153 155 167 170 169 169 179 191
205 180 158 150 160 23 34 82 58 52 93 341 325 357 341 68 83 100 131 146 155 172 177 203 297 322 305 306 321 323 340 74 216 164 142 144 167 180 179 177 181 184 188
347 305 129 163 225 235 83 116 130 29 354 314 318 235 259 120 112 125 142 145 150 142 156 173 233 277 294 340 353 343 353 341 306 287 242 219 218 209 203 204 202 195 196
176 305 270 223 225 215 193 188 141 60 322 329 327 271 227 181 198 182 169 165 149 134 139 152 187 278 307 338 356 332 334 333 306 315 302 272 254 239 225 222 220 214 208
213 128 40 357 332 270 224 197 191 222 269 300 321 312 270 178 176 172 173 174 161 156 156 158 172 209 283 293 284 271 270 305 304 308 289 281 273 270 258 244 237 233 221
45 58 33 5 347 325 340 319 251 212 252 266 288 306 320 325 104 136 151 160 164 173 183 184 198 213 240 244 253 246 236 287 291 286 261 273 266 261 257 249 245 235 227
56 43 9 12 344 327 352 359 12 47 257 251 259 288 313 356 80 103 118 135 164 180 185 193 207 224 230 224 223 234 230 233 251 269 236 261 267 260 262 261 250 234 226
141 311 341 338 344 338 5 19 27 45 43 288 258 245 238 281 237 138 124 93 73 251 229 218 221 233 235 231 221 225 233 236 256 258 218 252 272 267 274 275 262 240 230
182 273 300 314 318 310 343 20 56 84 41 354 356 10 243 254 250 134 124 124 355 320 308 258 243 248 248 238 214 203 210 230 263 263 214 233 258 266 266 262 260 245 240
210 344 331 321 317 322 349 32 74 112 60 332 343 353 349 330 313 122 146 169 236 287 305 322 330 324 302 282 228 209 205 210 233 255 226 220 240 259 270 246 247 258 256
Height
1500 1499 1499 1500 1500 1500 1499 1499 1499 1499 1499 1500 1502 1503 1504 1506 1507 1508 1509 1511 1512 1514 1515 1517 1518 1520 1522 1524 1526 1528 1530 1532 1534 1536 1538 1539 1540 1542 1543 1544 1546 1547 1548
1502 1501 1501 1501 1501 1500 1499 1499 1498 1497 1498 1499 1500 1502 1503 1504 1505 1506 1508 1510 1511 1513 1514 1516 1518 1520 1522 1523 1525 1527 1529 1531 1533 1535 1537 1538 1539 1541 1542 1543 1545 1546 1547
1504 1504 1503 1503 1502 1501 1500 1499 1498 1498 1498 1499 1500 1502 1503 1503 1504 1505 1507 1509 1511 1513 1514 1516 1517 1519 1521 1523 1525 1526 1528 1530 1532 1534 1535 1537 1538 1540 1541 1542 1543 1545 1546
1506 1505 1505 1504 1504 1503 1502 1501 1500 1499 1500 1500 1501 1502 1502 1503 1503 1505 1507 1509 1511 1513 1515 1516 1518 1519 1521 1523 1524 1525 1527 1529 1531 1532 1534 1536 1537 1538 1539 1541 1542 1543 1544
1508 1507 1507 1506 1505 1504 1503 1502 1502 1501 1501 1501 1502 1502 1503 1503 1504 1506 1508 1510 1512 1513 1515 1517 1518 1520 1521 1522 1523 1525 1526 1527 1529 1531 1533 1534 1535 1537 1538 1539 1540 1541 1543
1509 1509 1508 1507 1507 1506 1505 1504 1503 1503 1503 1502 1503 1504 1504 1505 1506 1508 1509 1511 1512 1514 1515 1517 1518 1520 1521 1522 1523 1524 1525 1526 1528 1529 1531 1532 1533 1535 1536 1537 1538 1539 1540
1511 1510 1509 1509 1508 1507 1507 1506 1505 1504 1504 1504 1505 1505 1506 1506 1507 1509 1510 1511 1513 1514 1515 1517 1518 1519 1520 1521 1522 1523 1524 1525 1526 1528 1529 1530 1531 1533 1534 1535 1536 1537 1538
1511 1511 1510 1509 1509 1508 1508 1507 1507 1506 1506 1506 1506 1506 1507 1509 1509 1510 1511 1512 1513 1514 1515 1517 1518 1519 1520 1521 1522 1523 1524 1525 1525 1526 1527 1528 1529 1530 1531 1532 1533 1534 1535
1512 1512 1511 1511 1510 1510 1509 1509 1508 1508 1508 1508 1508 1509 1508 1509 1510 1512 1512 1513 1514 1514 1515 1517 1518 1519 1519 1520 1521 1522 1523 1524 1524 1525 1526 1526 1527 1528 1529 1530 1531 1532 1533
1513 1512 1512 1512 1511 1511 1510 1510 1510 1509 1509 1509 1510 1510 1511 1510 1511 1512 1513 1513 1514 1514 1515 1516 1517 1518 1519 1520 1520 1521 1522 1523 1523 1524 1524 1524 1525 1526 1527 1528 1529 1530 1531
1514 1513 1513 1512 1512 1512 1511 1511 1511 1510 1510 1510 1510 1511 1511 1511 1511 1512 1513 1513 1514 1514 1515 1516 1517 1517 1518 1519 1519 1520 1520 1521 1521 1522 1522 1522 1523 1523 1525 1526 1526 1527 1528
1514 1513 1513 1513 1512 1512 1512 1512 1511 1511 1511 1511 1511 1511 1511 1511 1512 1512 1512 1513 1513 1514 1514 1515 1516 1517 1517 1518 1518 1519 1519 1519 1520 1520 1520 1521 1521 1521 1522 1523 1524 1525 1526
1513 1513 1513 1513 1513 1512 1512 1512 1512 1511 1511 1511 1511 1511 1511 1511 1512 1512 1512 1512 1513 1513 1514 1515 1516 1516 1516 1517 1517 1518 1518 1518 1518 1519 1519 1519 1519 1520 1520 1521 1522 1523 1523
1514 1513 1513 1513 1512 1512 1512 1512 1511 1511 1511 1511 1510 1510 1511 1511 1511 1511 1512 1512 1512 1513 1514 1514 1515 1515 1515 1516 1516 1516 1516 1517 1517 1517 1517 1518 1518 1518 1519 1519 1519 1520 1521
1514 1513 1512 1512 1512 1512 1511 1511 1510 1510 1510 1510 1510 1510 1510 1510 1510 1510 1511 1511 1512 1512 1513 1513 1513 1514 1514 1514 1514 1515 1515 1515 1515 1515 1515 1516 1516 1517 1517 1517 1517 1518 1519
1513 1512 1512 1511 1511 1511 1510 1510 1509 1509 1509 1509 1509 1509 1509 1509 1509 1510 1510 1510 1511 1511 1511 1511 1512 1512 1512 1512 1513 1513 1513 1513 1513 1513 1513 1514 1514 1514 1515 1515 1515 1516 1516
1512 1512 1511 1510 1510 1509 1509 1508 1508 1508 1508 1508 1508 1508 1508 1508 1508 1508 1509 1509 1509 1510 1509 1509 1510 1510 1510 1510 1511 1511 1511 1511 1511 1511 1511 1511 1512 1512 1513 1513 1513 1514 1514
1511 1511 1510 1509 1509 1508 1507 1507 1507 1507 1506 1506 1506 1506 1506 1506 1506 1506 1507 1507 1507 1507 1507 1507 1508 1508 1508 1508 1508 1509 1509 1509 1509 1509 1509 1509 1510 1510 1510 1511 1511 1511 1512
1510 1510 1509 1508 1507 1507 1506 1506 1506 1506 1505 1505 1504 1504 1504 1504 1504 1504 1505 1505 1505 1505 1505 1505 1505 1506 1506 1506 1506 1506 1507 1507 1507 1507 1507 1507 1507 1507 1508 1508 1509 1509 1509
1509 1509 1508 1508 1507 1506 1506 1505 1505 1504 1504 1503 1502 1502 1502 1502 1502 1503 1503 1503 1503 1503 1503 1503 1503 1503 1503 1504 1504 1504 1504 1504 1504 1505 1505 1505 1505 1505 1505 1506 1506 1506 1507
1508 1508 1507 1507 1506 1505 1504 1504 1503 1502 1502 1501 1501 1500 1500 1501 1501 1501 1501 1500 1501 1501 1501 1501 1501 1501 1501 1502 1502 1502 1502 1502 1502 1502 1502 1503 1503 1503 1503 1503 1503 1504 1504
1507 1507 1506 1506 1505 1504 1503 1502 1502 1500 1500 1499 1499 1499 1499 1498 1498 1498 1498 1498 1499 1499 1498 1498 1498 1498 1499 1499 1499 1499 1499 1499 1499 1500 1500 1500 1500 1500 1500 1501 1501 1501 1502
1506 1505 1505 1504 1503 1502 1501 1500 1500 1499 1498 1497 1496 1496 1496 1496 1496 1496 1496 1496 1496 1496 1496 1497 1496 1496 1496 1497 1497 1497 1497 1497 1497 1497 1497 1496 1497 1497 1497 1498 1498 1498 1499
1505 1504 1503 1502 1501 1500 1499 1498 1497 1496 1495 1494 1494 1494 1494 1494 1494 1494 1494 1494 1493 1494 1494 1494 1494 1494 1494 1494 1494 1494 1494 1494 1494 1494 1494 1494 1494 1494 1494 1495 1495 1495 1495
1503 1502 1501 1500 1499 1497 1496 1495 1495 1494 1493 1492 1492 1491 1491 1492 1492 1492 1491 1491 1491 1491 1491 1491 1491 1491 1491 1491 1491 1492 1491 1491 1490 1491 1491 1491 1490 1491 1491 1491 1492 1492 1492
1500 1500 1499 1498 1497 1496 1494 1493 1492 1492 1491 1491 1490 1490 1490 1489 1489 1489 1489 1489 1489 1489 1489 1489 1488 1488 1488 1488 1488 1489 1489 1488 1488 1488 1488 1488 1487 1488 1487 1487 1488 1488 1488